Find Starlink 2267

NORAD ID: 48031 Int'l Des: 2021-024 Owner: SPXS Country: US Constellation: starlink decayed
LEOCIRCULAR

Historical Track — Feb 17, 2025

Loading 3D Globe...

About Starlink 2267

Description loading...

Altitude History

Loading altitude history...

Two-Line Element Set

1 48031U 21024BG 25048.90906128 .19653948 12573-4 31799-3 0 9998
2 48031 53.0204 109.4183 0002595 246.0877 292.3139 16.48174977218186
Epoch: Feb 17, 2025 • Age: 11073 hours

Current Status

Position data unavailable
Launch Date Mar 24, 2021
Age 5.1 years
Decay Date Feb 17, 2025
Type internet

Technical Details

Classification Payload
Mass 260.00 kg
Dry Mass 248.00 kg
Total Mass 260.00 kg
Length 0.20 m
Diameter 2.80 m
Span 9.00 m
Shape Box + pan
Manufacturer SPXS
Bus Type Starlink
Phase Status Unknown Transfer Status
Owner/State SPXS/US

Most Searched